Time,TemperatureF,DewpointF,PressureIn,WindDirection,WindDirectionDegrees,WindSpeedMPH,WindSpeedGustMPH,Humidity,HourlyPrecipIn,Conditions,Clouds,dailyrainin,SolarRadiationWatts/m^2,SoftwareType,DateUTC
2013-02-12 00:00:00,67.2,63.8,30.09,SE,136,0.0,0.0,89,0.00,,FEW030,0.00,74.00,VWS V14.01,2013-02-12 05:00:00,
2013-02-12 00:05:00,66.9,63.6,30.09,SE,136,0.0,0.0,89,0.00,,FEW030,0.00,74.00,VWS V14.01,2013-02-12 05:05:00,
2013-02-12 00:10:00,66.9,63.9,30.08,SE,136,0.0,0.0,90,0.00,,FEW030,0.00,74.00,VWS V14.01,2013-02-12 05:10:00,
2013-02-12 00:15:00,67.0,64.0,30.08,SE,136,0.0,0.0,90,0.00,,FEW030,0.00,74.00,VWS V14.01,2013-02-12 05:15:00,
2013-02-12 00:20:00,66.7,64.0,30.09,SE,136,0.0,0.0,91,0.00,,FEW030,0.00,74.00,VWS V14.01,2013-02-12 05:20:00,
2013-02-12 00:25:00,66.4,63.7,30.09,SE,136,0.0,0.0,91,0.00,,FEW030,0.00,74.00,VWS V14.01,2013-02-12 05:25:00,
2013-02-12 00:30:00,66.2,63.5,30.08,SE,136,0.0,0.0,91,0.00,,FEW030,0.00,74.00,VWS V14.01,2013-02-12 05:30:00,
2013-02-12 00:35:00,66.1,63.4,30.08,SE,136,0.0,0.0,91,0.00,,FEW030,0.00,74.00,VWS V14.01,2013-02-12 05:35:00,
2013-02-12 00:40:00,66.1,63.7,30.08,SE,136,0.0,0.0,92,0.00,,FEW030,0.00,74.00,VWS V14.01,2013-02-12 05:40:00,
2013-02-12 00:45:00,66.2,63.8,30.08,SE,136,0.0,0.0,92,0.00,,FEW030,0.00,74.00,VWS V14.01,2013-02-12 05:45:00,
2013-02-12 00:50:00,65.9,63.5,30.08,SE,136,0.0,0.0,92,0.00,,FEW030,0.00,74.00,VWS V14.01,2013-02-12 05:50:00,
2013-02-12 00:55:00,66.0,63.6,30.08,SE,136,0.0,0.0,92,0.00,,FEW030,0.00,74.00,VWS V14.01,2013-02-12 05:55:00,
2013-02-12 01:00:00,66.1,64.0,30.08,SE,136,0.0,0.0,93,0.00,,FEW030,0.00,74.00,VWS V14.01,2013-02-12 06:00:00,
2013-02-12 01:05:00,65.8,63.7,30.08,SE,136,0.0,0.0,93,0.00,,FEW030,0.00,74.00,VWS V14.01,2013-02-12 06:05:00,
2013-02-12 01:10:00,65.8,63.7,30.08,SE,136,0.0,0.0,93,0.00,,FEW030,0.00,74.00,VWS V14.01,2013-02-12 06:10:00,
2013-02-12 01:15:00,65.8,63.7,30.08,SE,136,0.0,0.0,93,0.00,,FEW030,0.00,74.00,VWS V14.01,2013-02-12 06:15:00,
2013-02-12 01:20:00,65.8,63.7,30.08,SE,136,0.0,0.0,93,0.00,,FEW030,0.00,74.00,VWS V14.01,2013-02-12 06:20:00,
2013-02-12 01:25:00,65.8,63.7,30.08,SE,136,0.0,0.0,93,0.00,,FEW030,0.00,74.00,VWS V14.01,2013-02-12 06:25:00,
2013-02-12 01:30:00,65.8,63.7,30.07,SE,136,0.0,0.0,93,0.00,,FEW030,0.00,74.00,VWS V14.01,2013-02-12 06:30:00,
2013-02-12 01:35:00,65.6,63.5,30.07,SE,136,0.0,0.0,93,0.00,,FEW030,0.00,74.00,VWS V14.01,2013-02-12 06:35:00,
2013-02-12 01:40:00,65.7,63.6,30.07,SE,136,0.0,0.0,93,0.00,,FEW030,0.00,74.00,VWS V14.01,2013-02-12 06:40:00,
2013-02-12 01:45:00,65.7,63.6,30.07,SE,136,0.0,0.0,93,0.00,,FEW030,0.00,74.00,VWS V14.01,2013-02-12 06:45:00,
2013-02-12 01:50:00,65.8,63.7,30.07,SE,136,0.0,0.0,93,0.00,,FEW030,0.00,74.00,VWS V14.01,2013-02-12 06:50:00,
2013-02-12 01:55:00,65.6,63.5,30.07,SE,136,0.0,0.0,93,0.00,,FEW030,0.00,74.00,VWS V14.01,2013-02-12 06:55:00,
2013-02-12 02:00:00,65.6,63.5,30.07,SE,136,0.0,0.0,93,0.00,,FEW030,0.00,74.00,VWS V14.01,2013-02-12 07:00:00,
2013-02-12 02:05:00,65.6,63.5,30.07,SE,136,0.0,0.0,93,0.00,,FEW030,0.00,74.00,VWS V14.01,2013-02-12 07:05:00,
2013-02-12 02:10:00,65.6,63.5,30.06,SE,136,0.0,0.0,93,0.00,,FEW030,0.00,74.00,VWS V14.01,2013-02-12 07:10:00,
2013-02-12 02:15:00,65.5,63.4,30.06,SE,136,0.0,0.0,93,0.00,,FEW030,0.00,74.00,VWS V14.01,2013-02-12 07:15:00,
2013-02-12 02:20:00,65.4,63.3,30.06,SE,136,0.0,0.0,93,0.00,,FEW030,0.00,74.00,VWS V14.01,2013-02-12 07:20:00,
2013-02-12 02:25:00,65.3,63.2,30.06,SE,136,0.0,0.0,93,0.00,,FEW030,0.00,74.00,VWS V14.01,2013-02-12 07:25:00,
2013-02-12 02:30:00,65.0,62.9,30.06,SE,136,0.0,0.0,93,0.00,,FEW030,0.00,74.00,VWS V14.01,2013-02-12 07:30:00,
2013-02-12 02:35:00,64.8,62.7,30.06,SE,136,0.0,0.0,93,0.00,,FEW030,0.00,74.00,VWS V14.01,2013-02-12 07:35:00,
2013-02-12 02:40:00,64.6,62.5,30.06,SE,136,0.0,0.0,93,0.00,,FEW030,0.00,74.00,VWS V14.01,2013-02-12 07:40:00,
2013-02-12 02:45:00,64.5,62.4,30.06,SE,136,0.0,0.0,93,0.00,,FEW030,0.00,74.00,VWS V14.01,2013-02-12 07:45:00,
2013-02-12 02:50:00,64.1,62.0,30.06,SE,136,0.0,0.0,93,0.00,,FEW030,0.00,74.00,VWS V14.01,2013-02-12 07:50:00,
2013-02-12 02:55:00,63.9,61.8,30.06,SE,136,0.0,0.0,93,0.00,,FEW030,0.00,74.00,VWS V14.01,2013-02-12 07:55:00,
2013-02-12 03:00:00,63.8,61.7,30.06,SE,136,0.0,0.0,93,0.00,,FEW030,0.00,74.00,VWS V14.01,2013-02-12 08:00:00,
2013-02-12 03:05:00,63.8,61.7,30.06,SE,136,0.0,0.0,93,0.00,,FEW030,0.00,74.00,VWS V14.01,2013-02-12 08:05:00,
2013-02-12 03:10:00,63.7,61.6,30.05,SE,136,0.0,0.0,93,0.00,,FEW030,0.00,74.00,VWS V14.01,2013-02-12 08:10:00,
2013-02-12 03:15:00,63.9,62.1,30.05,SE,136,0.0,0.0,94,0.00,,FEW030,0.00,74.00,VWS V14.01,2013-02-12 08:15:00,
2013-02-12 03:20:00,64.0,62.2,30.05,SE,136,0.0,0.0,94,0.00,,FEW030,0.00,74.00,VWS V14.01,2013-02-12 08:20:00,
2013-02-12 03:25:00,64.2,62.4,30.05,SE,136,0.0,0.0,94,0.00,,FEW030,0.00,74.00,VWS V14.01,2013-02-12 08:25:00,
2013-02-12 03:30:00,64.0,62.2,30.05,SE,136,0.0,0.0,94,0.00,,FEW030,0.00,74.00,VWS V14.01,2013-02-12 08:30:00,
2013-02-12 03:35:00,64.0,62.2,30.05,SE,136,0.0,0.0,94,0.00,,FEW030,0.00,74.00,VWS V14.01,2013-02-12 08:35:00,
2013-02-12 03:40:00,64.0,62.2,30.05,SE,136,0.0,0.0,94,0.00,,FEW030,0.00,74.00,VWS V14.01,2013-02-12 08:40:00,
2013-02-12 03:45:00,64.2,62.4,30.05,SE,136,0.0,0.0,94,0.00,,FEW030,0.00,74.00,VWS V14.01,2013-02-12 08:45:00,
2013-02-12 03:50:00,64.4,62.6,30.05,SE,136,0.0,0.0,94,0.00,,FEW030,0.00,74.00,VWS V14.01,2013-02-12 08:50:00,
2013-02-12 03:55:00,64.3,62.5,30.05,SE,136,0.0,0.0,94,0.00,,FEW030,0.00,74.00,VWS V14.01,2013-02-12 08:55:00,
2013-02-12 04:00:00,63.7,62.0,30.05,SE,136,0.0,0.0,94,0.00,,FEW030,0.00,74.00,VWS V14.01,2013-02-12 09:00:00,
2013-02-12 04:05:00,64.0,62.2,30.05,SE,136,0.0,0.0,94,0.00,,FEW030,0.00,74.00,VWS V14.01,2013-02-12 09:05:00,
2013-02-12 04:10:00,64.1,62.3,30.05,SE,136,0.0,0.0,94,0.00,,FEW030,0.00,74.00,VWS V14.01,2013-02-12 09:10:00,
2013-02-12 04:15:00,63.8,62.0,30.05,SE,136,0.0,0.0,94,0.00,,FEW030,0.00,74.00,VWS V14.01,2013-02-12 09:15:00,
2013-02-12 04:20:00,63.5,61.8,30.05,SE,136,0.0,0.0,94,0.00,,FEW030,0.00,74.00,VWS V14.01,2013-02-12 09:20:00,
2013-02-12 04:25:00,63.8,62.0,30.05,SE,136,0.0,0.0,94,0.00,,FEW030,0.00,74.00,VWS V14.01,2013-02-12 09:25:00,
2013-02-12 04:30:00,63.7,62.0,30.05,SE,136,0.0,0.0,94,0.00,,FEW030,0.00,74.00,VWS V14.01,2013-02-12 09:30:00,
2013-02-12 04:35:00,63.4,61.7,30.05,SE,136,0.0,0.0,94,0.00,,FEW030,0.00,74.00,VWS V14.01,2013-02-12 09:35:00,
2013-02-12 04:40:00,63.5,61.8,30.05,SE,136,0.0,0.0,94,0.00,,FEW030,0.00,74.00,VWS V14.01,2013-02-12 09:40:00,
2013-02-12 04:45:00,63.5,61.8,30.05,SE,136,0.0,0.0,94,0.00,,FEW030,0.00,74.00,VWS V14.01,2013-02-12 09:45:00,
2013-02-12 04:50:00,63.6,62.2,30.05,SE,136,0.0,0.0,95,0.00,,FEW030,0.00,74.00,VWS V14.01,2013-02-12 09:50:00,
2013-02-12 04:55:00,63.7,62.0,30.05,SE,136,0.0,0.0,94,0.00,,FEW030,0.00,74.00,VWS V14.01,2013-02-12 09:55:00,
2013-02-12 05:00:00,63.6,62.2,30.05,SE,136,0.0,0.0,95,0.00,,FEW030,0.00,74.00,VWS V14.01,2013-02-12 10:00:00,
2013-02-12 05:05:00,63.5,62.0,30.05,SE,136,0.0,0.0,95,0.00,,FEW030,0.00,74.00,VWS V14.01,2013-02-12 10:05:00,
2013-02-12 05:10:00,63.9,62.4,30.05,SE,136,0.0,0.0,95,0.00,,FEW030,0.00,74.00,VWS V14.01,2013-02-12 10:10:00,
2013-02-12 05:15:00,63.6,62.2,30.05,SE,136,0.0,0.0,95,0.00,,FEW030,0.00,74.00,VWS V14.01,2013-02-12 10:15:00,
2013-02-12 05:20:00,63.6,62.2,30.05,SE,136,0.0,0.0,95,0.00,,FEW030,0.00,74.00,VWS V14.01,2013-02-12 10:20:00,
2013-02-12 05:25:00,64.0,62.5,30.05,SE,136,0.0,0.0,95,0.00,,FEW030,0.00,74.00,VWS V14.01,2013-02-12 10:25:00,
2013-02-12 05:30:00,64.1,62.6,30.05,SE,136,0.0,0.0,95,0.00,,FEW030,0.00,74.00,VWS V14.01,2013-02-12 10:30:00,
2013-02-12 05:35:00,63.8,62.3,30.05,SE,136,0.0,1.0,95,0.00,,FEW030,0.00,74.00,VWS V14.01,2013-02-12 10:35:00,
2013-02-12 05:40:00,63.9,62.4,30.05,SE,136,0.0,1.0,95,0.00,,FEW030,0.00,74.00,VWS V14.01,2013-02-12 10:40:00,
2013-02-12 05:45:00,64.0,62.5,30.05,SE,136,0.0,1.0,95,0.00,,FEW030,0.00,74.00,VWS V14.01,2013-02-12 10:45:00,
2013-02-12 05:50:00,64.3,62.8,30.05,SE,136,0.0,2.0,95,0.00,,FEW030,0.00,74.00,VWS V14.01,2013-02-12 10:50:00,
2013-02-12 05:55:00,64.4,62.9,30.05,SE,136,0.0,1.0,95,0.00,,FEW030,0.00,74.00,VWS V14.01,2013-02-12 10:55:00,
2013-02-12 06:00:00,64.4,62.9,30.05,SE,136,0.0,0.0,95,0.00,,FEW030,0.00,74.00,VWS V14.01,2013-02-12 11:00:00,
2013-02-12 06:05:00,64.5,63.0,30.05,SE,136,0.0,1.0,95,0.00,,FEW030,0.00,74.00,VWS V14.01,2013-02-12 11:05:00,
2013-02-12 06:10:00,64.6,63.1,30.05,SE,136,0.0,1.0,95,0.00,,FEW030,0.00,74.00,VWS V14.01,2013-02-12 11:10:00,
2013-02-12 06:15:00,64.7,63.2,30.05,SE,136,0.0,1.0,95,0.00,,FEW030,0.00,74.00,VWS V14.01,2013-02-12 11:15:00,
2013-02-12 06:20:00,64.6,63.1,30.05,SE,136,0.0,0.0,95,0.00,,FEW030,0.00,74.00,VWS V14.01,2013-02-12 11:20:00,
2013-02-12 06:25:00,64.6,63.1,30.05,SE,136,0.0,0.0,95,0.00,,FEW030,0.00,74.00,VWS V14.01,2013-02-12 11:25:00,
2013-02-12 06:30:00,64.6,63.1,30.05,SE,136,0.0,0.0,95,0.00,,FEW030,0.00,74.00,VWS V14.01,2013-02-12 11:30:00,
2013-02-12 06:35:00,64.7,63.2,30.05,SE,136,0.0,0.0,95,0.00,,FEW030,0.00,74.00,VWS V14.01,2013-02-12 11:35:00,
2013-02-12 06:40:00,64.7,63.2,30.05,SE,136,0.0,0.0,95,0.00,,FEW030,0.00,74.00,VWS V14.01,2013-02-12 11:40:00,
2013-02-12 06:45:00,64.7,63.2,30.05,SE,136,0.0,0.0,95,0.00,,FEW030,0.00,74.00,VWS V14.01,2013-02-12 11:45:00,
2013-02-12 06:50:00,64.8,63.3,30.06,SE,136,0.0,0.0,95,0.00,,FEW030,0.00,76.00,VWS V14.01,2013-02-12 11:50:00,
2013-02-12 06:55:00,64.9,63.4,30.06,SE,136,0.0,0.0,95,0.00,,FEW030,0.00,76.00,VWS V14.01,2013-02-12 11:55:00,
2013-02-12 07:00:00,64.9,63.4,30.06,SE,136,0.0,0.0,95,0.00,,FEW030,0.00,79.00,VWS V14.01,2013-02-12 12:00:00,
2013-02-12 07:05:00,65.1,63.6,30.06,SE,136,0.0,0.0,95,0.00,,FEW030,0.00,81.00,VWS V14.01,2013-02-12 12:05:00,
2013-02-12 07:10:00,65.2,63.7,30.06,SE,136,0.0,0.0,95,0.00,,FEW030,0.00,84.00,VWS V14.01,2013-02-12 12:10:00,
2013-02-12 07:15:00,65.3,63.8,30.06,SE,136,0.0,1.0,95,0.00,,FEW030,0.00,90.00,VWS V14.01,2013-02-12 12:15:00,
2013-02-12 07:20:00,65.4,63.9,30.06,SE,136,0.0,1.0,95,0.00,,FEW030,0.00,98.00,VWS V14.01,2013-02-12 12:20:00,
2013-02-12 07:25:00,65.6,64.1,30.06,SE,136,1.0,1.0,95,0.00,,FEW030,0.00,105.00,VWS V14.01,2013-02-12 12:25:00,
2013-02-12 07:30:00,66.0,64.5,30.06,SE,136,0.0,0.0,95,0.00,,FEW030,0.00,116.00,VWS V14.01,2013-02-12 12:30:00,
2013-02-12 07:35:00,66.4,64.9,30.06,SE,136,0.0,0.0,95,0.00,,FEW030,0.00,130.00,VWS V14.01,2013-02-12 12:35:00,
2013-02-12 07:40:00,66.6,65.1,30.06,SE,136,0.0,0.0,95,0.00,,FEW030,0.00,142.00,VWS V14.01,2013-02-12 12:40:00,
2013-02-12 07:45:00,66.9,65.4,30.06,SE,136,0.0,0.0,95,0.00,,FEW030,0.00,158.00,VWS V14.01,2013-02-12 12:45:00,
2013-02-12 07:50:00,67.2,65.4,30.07,SE,136,0.0,0.0,94,0.00,,FEW030,0.00,172.00,VWS V14.01,2013-02-12 12:50:00,
2013-02-12 07:55:00,67.6,65.8,30.07,SE,136,0.0,0.0,94,0.00,,FEW030,0.00,188.00,VWS V14.01,2013-02-12 12:55:00,
2013-02-12 08:00:00,67.9,66.1,30.07,SE,136,0.0,2.0,94,0.00,,FEW030,0.00,202.00,VWS V14.01,2013-02-12 13:00:00,
2013-02-12 08:05:00,68.4,66.3,30.07,SE,136,0.0,2.0,93,0.00,,FEW030,0.00,220.00,VWS V14.01,2013-02-12 13:05:00,
2013-02-12 08:10:00,68.8,66.7,30.06,SE,140,1.0,2.0,93,0.00,,FEW030,0.00,237.00,VWS V14.01,2013-02-12 13:10:00,
2013-02-12 08:15:00,69.4,67.0,30.06,SE,140,0.0,1.0,92,0.00,,FEW035,0.00,251.00,VWS V14.01,2013-02-12 13:15:00,
2013-02-12 08:20:00,69.8,67.1,30.07,South,186,0.0,3.0,91,0.00,,FEW035,0.00,262.00,VWS V14.01,2013-02-12 13:20:00,
2013-02-12 08:25:00,70.4,67.3,30.06,SSE,155,3.0,3.0,90,0.00,,FEW035,0.00,279.00,VWS V14.01,2013-02-12 13:25:00,
2013-02-12 08:30:00,70.9,67.5,30.07,SSE,162,1.0,2.0,89,0.00,,FEW035,0.00,301.00,VWS V14.01,2013-02-12 13:30:00,
2013-02-12 08:35:00,71.4,67.7,30.07,South,172,1.0,3.0,88,0.00,,FEW035,0.00,313.00,VWS V14.01,2013-02-12 13:35:00,
2013-02-12 08:40:00,71.9,67.8,30.07,SSE,164,0.0,5.0,87,0.00,,FEW035,0.00,334.00,VWS V14.01,2013-02-12 13:40:00,
2013-02-12 08:45:00,72.7,68.3,30.07,SSE,153,3.0,7.0,86,0.00,,FEW035,0.00,353.00,VWS V14.01,2013-02-12 13:45:00,
2013-02-12 08:50:00,73.2,68.4,30.07,South,178,3.0,3.0,85,0.00,,FEW035,0.00,371.00,VWS V14.01,2013-02-12 13:50:00,
2013-02-12 08:55:00,73.7,68.2,30.07,South,186,0.0,4.0,83,0.00,,FEW035,0.00,385.00,VWS V14.01,2013-02-12 13:55:00,
2013-02-12 09:00:00,74.2,68.7,30.07,SSE,154,0.0,3.0,83,0.00,,FEW035,0.00,401.00,VWS V14.01,2013-02-12 14:00:00,
2013-02-12 09:05:00,74.5,68.7,30.07,SSE,150,1.0,5.0,82,0.00,,FEW035,0.00,415.00,VWS V14.01,2013-02-12 14:05:00,
2013-02-12 09:10:00,74.8,68.6,30.07,SE,144,5.0,5.0,81,0.00,,FEW040,0.00,429.00,VWS V14.01,2013-02-12 14:10:00,
2013-02-12 09:15:00,75.2,69.0,30.08,South,171,1.0,5.0,81,0.00,,FEW040,0.00,443.00,VWS V14.01,2013-02-12 14:15:00,
2013-02-12 09:20:00,75.6,68.6,30.07,SSW,205,3.0,6.0,79,0.00,,FEW040,0.00,461.00,VWS V14.01,2013-02-12 14:20:00,
2013-02-12 09:25:00,75.8,68.8,30.08,SSW,202,2.0,5.0,79,0.00,,FEW040,0.00,475.00,VWS V14.01,2013-02-12 14:25:00,
2013-02-12 09:30:00,76.4,69.0,30.08,South,173,6.0,7.0,78,0.00,,FEW040,0.00,494.00,VWS V14.01,2013-02-12 14:30:00,
2013-02-12 09:35:00,76.7,68.6,30.08,South,174,4.0,9.0,76,0.00,,FEW040,0.00,510.00,VWS V14.01,2013-02-12 14:35:00,
2013-02-12 09:40:00,76.9,68.8,30.08,SSW,192,3.0,6.0,76,0.00,,FEW040,0.00,522.00,VWS V14.01,2013-02-12 14:40:00,
2013-02-12 09:45:00,77.3,68.8,30.08,SSE,155,1.0,10.0,75,0.00,,FEW040,0.00,533.00,VWS V14.01,2013-02-12 14:45:00,
2013-02-12 09:50:00,77.7,68.4,30.08,SSE,167,10.0,10.0,73,0.00,,FEW040,0.00,555.00,VWS V14.01,2013-02-12 14:50:00,
2013-02-12 09:55:00,77.7,68.4,30.08,SSE,157,2.0,10.0,73,0.00,,FEW040,0.00,559.00,VWS V14.01,2013-02-12 14:55:00,
2013-02-12 10:00:00,78.0,68.2,30.08,South,179,0.0,5.0,72,0.00,,FEW040,0.00,580.00,VWS V14.01,2013-02-12 15:00:00,
2013-02-12 10:05:00,78.3,68.1,30.08,SSE,168,1.0,7.0,71,0.00,,FEW030,0.00,577.00,VWS V14.01,2013-02-12 15:05:00,
2013-02-12 10:10:00,78.6,68.0,30.09,SSE,167,5.0,12.0,70,0.00,,FEW030,0.00,603.00,VWS V14.01,2013-02-12 15:10:00,
2013-02-12 10:15:00,78.7,68.1,30.08,South,174,7.0,7.0,70,0.00,,FEW030,0.00,603.00,VWS V14.01,2013-02-12 15:15:00,
2013-02-12 10:20:00,78.8,67.8,30.08,South,180,7.0,10.0,69,0.00,,FEW030,0.00,613.00,VWS V14.01,2013-02-12 15:20:00,
2013-02-12 10:25:00,78.9,67.9,30.08,SSE,148,0.0,10.0,69,0.00,,FEW030,0.00,642.00,VWS V14.01,2013-02-12 15:25:00,
2013-02-12 10:30:00,79.6,67.7,30.08,SE,146,5.0,9.0,67,0.00,,FEW030,0.00,645.00,VWS V14.01,2013-02-12 15:30:00,
2013-02-12 10:35:00,79.6,68.1,30.08,SSE,165,5.0,7.0,68,0.00,,FEW030,0.00,666.00,VWS V14.01,2013-02-12 15:35:00,
2013-02-12 10:40:00,80.0,68.1,30.08,South,178,0.0,5.0,67,0.00,,FEW030,0.00,673.00,VWS V14.01,2013-02-12 15:40:00,
2013-02-12 10:45:00,80.6,68.2,30.08,SSE,157,1.0,4.0,66,0.00,,FEW030,0.00,682.00,VWS V14.01,2013-02-12 15:45:00,
2013-02-12 10:50:00,80.7,67.8,30.08,SSE,159,3.0,9.0,65,0.00,,FEW030,0.00,698.00,VWS V14.01,2013-02-12 15:50:00,
2013-02-12 10:55:00,80.7,67.8,30.08,ESE,123,4.0,5.0,65,0.00,,FEW030,0.00,701.00,VWS V14.01,2013-02-12 15:55:00,
2013-02-12 11:00:00,80.9,68.0,30.08,South,170,1.0,6.0,65,0.00,,FEW030,0.00,689.00,VWS V14.01,2013-02-12 16:00:00,
2013-02-12 11:05:00,81.5,67.7,30.08,South,188,2.0,7.0,63,0.00,,FEW030,0.00,722.00,VWS V14.01,2013-02-12 16:05:00,
2013-02-12 11:10:00,81.4,68.1,30.08,SSE,153,5.0,6.0,64,0.00,,FEW030,0.00,726.00,VWS V14.01,2013-02-12 16:10:00,
2013-02-12 11:15:00,81.4,67.1,30.07,SSE,148,2.0,7.0,62,0.00,,FEW030,0.00,749.00,VWS V14.01,2013-02-12 16:15:00,
2013-02-12 11:19:00,81.1,67.8,30.07,South,186,2.0,5.0,64,0.00,,FEW030,0.00,636.00,VWS V14.01,2013-02-12 16:19:00,
2013-02-12 11:24:00,81.5,67.2,30.07,South,177,9.0,10.0,62,0.00,,FEW030,0.00,786.00,VWS V14.01,2013-02-12 16:24:00,
2013-02-12 11:29:00,82.3,67.5,30.07,SSW,194,4.0,5.0,61,0.00,,FEW030,0.00,779.00,VWS V14.01,2013-02-12 16:29:00,
2013-02-12 11:34:00,83.0,67.7,30.07,South,173,5.0,5.0,60,0.00,,FEW030,0.00,777.00,VWS V14.01,2013-02-12 16:34:00,
2013-02-12 11:39:00,83.1,67.3,30.07,SSW,198,7.0,10.0,59,0.00,,FEW030,0.00,823.00,VWS V14.01,2013-02-12 16:39:00,
2013-02-12 11:44:00,82.4,66.2,30.07,SE,140,4.0,9.0,58,0.00,,FEW030,0.00,875.00,VWS V14.01,2013-02-12 16:44:00,
2013-02-12 11:49:00,82.9,67.1,30.06,South,188,1.0,7.0,59,0.00,,FEW030,0.00,429.00,VWS V14.01,2013-02-12 16:49:00,
2013-02-12 11:54:00,82.9,67.6,30.06,SSW,201,3.0,6.0,60,0.00,,FEW030,0.00,589.00,VWS V14.01,2013-02-12 16:54:00,
2013-02-12 11:59:00,83.1,66.3,30.06,SSW,205,2.0,7.0,57,0.00,,FEW030,0.00,962.00,VWS V14.01,2013-02-12 16:59:00,
2013-02-12 12:04:00,83.7,66.9,30.06,South,171,4.0,6.0,57,0.00,,FEW030,0.00,960.00,VWS V14.01,2013-02-12 17:04:00,
2013-02-12 12:09:00,83.4,66.6,30.06,SE,145,5.0,6.0,57,0.00,,FEW030,0.00,881.00,VWS V14.01,2013-02-12 17:09:00,
2013-02-12 12:14:00,83.8,65.4,30.06,SW,219,0.0,9.0,54,0.00,,FEW030,0.00,415.00,VWS V14.01,2013-02-12 17:14:00,
2013-02-12 12:19:00,84.5,66.6,30.05,SSW,198,1.0,6.0,55,0.00,,FEW030,0.00,874.00,VWS V14.01,2013-02-12 17:19:00,
2013-02-12 12:24:00,84.9,65.3,30.05,SSE,167,3.0,7.0,52,0.00,,FEW030,0.00,977.00,VWS V14.01,2013-02-12 17:24:00,
2013-02-12 12:29:00,84.9,64.8,30.05,SSW,212,4.0,5.0,51,0.00,,FEW030,0.00,784.00,VWS V14.01,2013-02-12 17:29:00,
2013-02-12 12:34:00,84.3,64.2,30.04,SSW,193,3.0,7.0,51,0.00,,FEW030,0.00,276.00,VWS V14.01,2013-02-12 17:34:00,
2013-02-12 12:39:00,83.6,64.7,30.04,South,171,11.0,11.0,53,0.00,,FEW030,0.00,322.00,VWS V14.01,2013-02-12 17:39:00,
2013-02-12 12:44:00,84.2,65.8,30.04,SW,217,4.0,6.0,54,0.00,,FEW030,0.00,935.00,VWS V14.01,2013-02-12 17:44:00,
2013-02-12 12:49:00,84.6,65.1,30.04,SW,226,0.0,3.0,52,0.00,,FEW030,0.00,977.00,VWS V14.01,2013-02-12 17:49:00,
2013-02-12 12:54:00,84.6,65.1,30.03,SSW,208,0.0,3.0,52,0.00,,FEW030,0.00,984.00,VWS V14.01,2013-02-12 17:54:00,
2013-02-12 12:59:00,85.7,64.4,30.03,SSW,202,0.0,6.0,49,0.00,,FEW030,0.00,956.00,VWS V14.01,2013-02-12 17:59:00,
2013-02-12 13:04:00,85.9,63.3,30.03,SSE,157,0.0,5.0,47,0.00,,FEW030,0.00,951.00,VWS V14.01,2013-02-12 18:04:00,
2013-02-12 13:09:00,86.0,64.0,30.02,SSW,193,3.0,9.0,48,0.00,,SCT030,0.00,904.00,VWS V14.01,2013-02-12 18:09:00,
2013-02-12 13:14:00,86.1,64.1,30.03,SSE,151,5.0,10.0,48,0.00,,SCT030,0.00,875.00,VWS V14.01,2013-02-12 18:14:00,
2013-02-12 13:19:00,86.4,64.4,30.02,SSE,157,5.0,10.0,48,0.00,,SCT030,0.00,868.00,VWS V14.01,2013-02-12 18:19:00,
2013-02-12 13:24:00,86.1,63.5,30.02,SW,215,1.0,14.0,47,0.00,,SCT030,0.00,879.00,VWS V14.01,2013-02-12 18:24:00,
2013-02-12 13:29:00,85.9,64.0,30.01,SW,235,4.0,10.0,48,0.00,,SCT030,0.00,837.00,VWS V14.01,2013-02-12 18:29:00,
2013-02-12 13:34:00,85.9,64.5,30.00,SW,227,2.0,6.0,49,0.00,,SCT030,0.00,867.00,VWS V14.01,2013-02-12 18:34:00,
2013-02-12 13:39:00,86.1,64.1,30.00,WSW,241,4.0,9.0,48,0.00,,SCT030,0.00,322.00,VWS V14.01,2013-02-12 18:39:00,
2013-02-12 13:44:00,85.4,64.7,30.00,South,180,4.0,9.0,50,0.00,,SCT030,0.00,304.00,VWS V14.01,2013-02-12 18:44:00,
2013-02-12 13:49:00,85.5,65.3,30.00,SW,229,0.0,8.0,51,0.00,,SCT030,0.00,788.00,VWS V14.01,2013-02-12 18:49:00,
2013-02-12 13:54:00,85.6,63.7,30.00,South,182,6.0,10.0,48,0.00,,SCT030,0.00,775.00,VWS V14.01,2013-02-12 18:54:00,
2013-02-12 13:59:00,86.1,63.5,30.00,SSW,213,3.0,6.0,47,0.00,,SCT030,0.00,726.00,VWS V14.01,2013-02-12 18:59:00,
2013-02-12 14:04:00,85.6,63.1,30.00,WSW,249,4.0,5.0,47,0.00,,SCT030,0.00,279.00,VWS V14.01,2013-02-12 19:04:00,
2013-02-12 14:09:00,86.0,63.4,30.00,SW,223,6.0,8.0,47,0.00,,SCT030,0.00,784.00,VWS V14.01,2013-02-12 19:09:00,
2013-02-12 14:14:00,86.7,63.5,30.00,SW,233,2.0,7.0,46,0.00,,SCT030,0.00,765.00,VWS V14.01,2013-02-12 19:14:00,
2013-02-12 14:19:00,86.7,62.8,29.99,South,179,2.0,6.0,45,0.00,,SCT030,0.00,756.00,VWS V14.01,2013-02-12 19:19:00,
2013-02-12 14:24:00,86.8,63.6,29.99,SSW,204,14.0,14.0,46,0.00,,SCT030,0.00,724.00,VWS V14.01,2013-02-12 19:24:00,
2013-02-12 14:29:00,86.4,61.9,29.99,NNW,340,3.0,11.0,44,0.00,,SCT030,0.00,708.00,VWS V14.01,2013-02-12 19:29:00,
2013-02-12 14:34:00,86.8,63.6,29.98,SSW,192,5.0,9.0,46,0.00,,SCT030,0.00,680.00,VWS V14.01,2013-02-12 19:34:00,
2013-02-12 14:39:00,86.5,63.9,29.98,SSW,211,6.0,10.0,47,0.00,,SCT030,0.00,671.00,VWS V14.01,2013-02-12 19:39:00,
2013-02-12 14:44:00,86.1,63.5,29.98,SW,217,2.0,5.0,47,0.00,,SCT030,0.00,668.00,VWS V14.01,2013-02-12 19:44:00,
2013-02-12 14:49:00,87.0,63.1,29.98,WSW,239,0.0,10.0,45,0.00,,SCT030,0.00,670.00,VWS V14.01,2013-02-12 19:49:00,
2013-02-12 14:54:00,86.8,62.3,29.98,SSW,204,5.0,10.0,44,0.00,,SCT030,0.00,652.00,VWS V14.01,2013-02-12 19:54:00,
2013-02-12 14:59:00,86.4,61.9,29.97,SW,221,1.0,7.0,44,0.00,,SCT030,0.00,649.00,VWS V14.01,2013-02-12 19:59:00,
2013-02-12 15:04:00,86.8,63.6,29.97,South,182,3.0,6.0,46,0.00,,SCT030,0.00,631.00,VWS V14.01,2013-02-12 20:04:00,
2013-02-12 15:09:00,86.3,63.7,29.97,SSE,159,5.0,10.0,47,0.00,,SCT030,0.00,612.00,VWS V14.01,2013-02-12 20:09:00,
2013-02-12 15:14:00,86.1,64.1,29.97,SSW,195,1.0,10.0,48,0.00,,SCT030,0.00,598.00,VWS V14.01,2013-02-12 20:14:00,
2013-02-12 15:19:00,86.8,64.8,29.97,SSW,211,3.0,4.0,48,0.00,,SCT030,0.00,585.00,VWS V14.01,2013-02-12 20:19:00,
2013-02-12 15:24:00,87.0,64.3,29.96,SSW,203,11.0,11.0,47,0.00,,SCT030,0.00,566.00,VWS V14.01,2013-02-12 20:24:00,
2013-02-12 15:29:00,86.8,64.2,29.96,SSW,193,4.0,9.0,47,0.00,,SCT030,0.00,510.00,VWS V14.01,2013-02-12 20:29:00,
2013-02-12 15:34:00,86.2,64.2,29.96,SSW,211,0.0,5.0,48,0.00,,SCT030,0.00,548.00,VWS V14.01,2013-02-12 20:34:00,
2013-02-12 15:39:00,84.7,68.8,29.96,SE,138,11.0,11.0,59,0.00,,SCT030,0.00,566.00,VWS V14.01,2013-02-12 20:39:00,
2013-02-12 15:44:00,82.9,69.9,29.96,South,174,4.0,11.0,65,0.00,,SCT030,0.00,561.00,VWS V14.01,2013-02-12 20:44:00,
2013-02-12 15:49:00,83.0,70.0,29.95,SE,146,7.0,9.0,65,0.00,,SCT030,0.00,563.00,VWS V14.01,2013-02-12 20:49:00,
2013-02-12 15:54:00,82.6,70.1,29.95,SE,131,11.0,11.0,66,0.00,,SCT030,0.00,223.00,VWS V14.01,2013-02-12 20:54:00,
2013-02-12 15:59:00,81.8,69.3,29.95,SE,136,2.0,15.0,66,0.00,,SCT030,0.00,478.00,VWS V14.01,2013-02-12 20:59:00,
2013-02-12 16:04:00,81.5,69.5,29.95,SE,134,7.0,10.0,67,0.00,,SCT030,0.00,176.00,VWS V14.01,2013-02-12 21:04:00,
2013-02-12 16:09:00,81.2,70.1,29.94,SE,132,4.0,12.0,69,0.00,,SCT030,0.00,209.00,VWS V14.01,2013-02-12 21:09:00,
2013-02-12 16:14:00,80.7,70.0,29.94,SSE,148,7.0,13.0,70,0.00,,SCT030,0.00,357.00,VWS V14.01,2013-02-12 21:14:00,
2013-02-12 16:19:00,80.7,70.0,29.94,South,184,6.0,13.0,70,0.00,,SCT030,0.00,200.00,VWS V14.01,2013-02-12 21:19:00,
2013-02-12 16:24:00,80.4,69.7,29.94,SSE,155,7.0,12.0,70,0.00,,SCT030,0.00,178.00,VWS V14.01,2013-02-12 21:24:00,
2013-02-12 16:29:00,80.2,69.5,29.94,ESE,121,12.0,14.0,70,0.00,,SCT030,0.00,232.00,VWS V14.01,2013-02-12 21:29:00,
2013-02-12 16:34:00,80.3,70.1,29.94,SSE,150,2.0,12.0,71,0.00,,SCT030,0.00,213.00,VWS V14.01,2013-02-12 21:34:00,
2013-02-12 16:39:00,80.3,70.1,29.94,SE,134,10.0,13.0,71,0.00,,SCT030,0.00,193.00,VWS V14.01,2013-02-12 21:39:00,
2013-02-12 16:44:00,80.0,69.8,29.94,SSE,159,7.0,10.0,71,0.00,,SCT030,0.00,281.00,VWS V14.01,2013-02-12 21:44:00,
2013-02-12 16:49:00,79.8,69.6,29.94,SE,140,7.0,12.0,71,0.00,,SCT030,0.00,287.00,VWS V14.01,2013-02-12 21:49:00,
2013-02-12 16:54:00,79.5,69.7,29.94,SE,139,2.0,10.0,72,0.00,,SCT030,0.00,160.00,VWS V14.01,2013-02-12 21:54:00,
2013-02-12 16:59:00,79.3,69.5,29.94,SE,125,3.0,11.0,72,0.00,,SCT030,0.00,278.00,VWS V14.01,2013-02-12 21:59:00,
2013-02-12 17:04:00,79.6,69.8,29.94,ENE,71,2.0,9.0,72,0.00,,SCT030,0.00,265.00,VWS V14.01,2013-02-12 22:04:00,
2013-02-12 17:09:00,79.8,70.0,29.94,East,96,10.0,14.0,72,0.00,,SCT030,0.00,269.00,VWS V14.01,2013-02-12 22:09:00,
2013-02-12 17:14:00,80.8,69.7,29.94,SSE,157,4.0,11.0,69,0.00,,SCT030,0.00,257.00,VWS V14.01,2013-02-12 22:14:00,
2013-02-12 17:19:00,80.7,69.2,29.94,South,169,9.0,11.0,68,0.00,,SCT030,0.00,204.00,VWS V14.01,2013-02-12 22:19:00,
2013-02-12 17:24:00,80.5,69.0,29.94,South,174,2.0,13.0,68,0.00,,SCT030,0.00,146.00,VWS V14.01,2013-02-12 22:24:00,
2013-02-12 17:29:00,80.3,69.2,29.94,SSE,150,6.0,9.0,69,0.00,,SCT030,0.00,139.00,VWS V14.01,2013-02-12 22:29:00,
2013-02-12 17:34:00,79.8,69.2,29.95,SSE,167,2.0,12.0,70,0.00,,SCT030,0.00,127.00,VWS V14.01,2013-02-12 22:34:00,
2013-02-12 17:39:00,79.4,69.2,29.95,SE,128,7.0,13.0,71,0.00,,SCT030,0.00,114.00,VWS V14.01,2013-02-12 22:39:00,
2013-02-12 17:44:00,79.0,68.8,29.95,SE,131,4.0,10.0,71,0.00,,SCT030,0.00,102.00,VWS V14.01,2013-02-12 22:44:00,
2013-02-12 17:49:00,78.7,68.9,29.95,SSE,148,4.0,10.0,72,0.00,,SCT030,0.00,95.00,VWS V14.01,2013-02-12 22:49:00,
2013-02-12 17:54:00,78.5,69.1,29.95,SE,131,3.0,10.0,73,0.00,,SCT030,0.00,90.00,VWS V14.01,2013-02-12 22:54:00,
2013-02-12 17:59:00,78.3,68.9,29.95,SE,145,10.0,13.0,73,0.00,,SCT030,0.00,86.00,VWS V14.01,2013-02-12 22:59:00,
2013-02-12 18:04:00,78.0,68.7,29.95,SE,144,5.0,12.0,73,0.00,,SCT030,0.00,83.00,VWS V14.01,2013-02-12 23:04:00,
2013-02-12 18:09:00,77.8,68.5,29.95,SSE,158,6.0,11.0,73,0.00,,SCT030,0.00,79.00,VWS V14.01,2013-02-12 23:09:00,
2013-02-12 18:14:00,77.6,68.7,29.95,SSE,155,4.0,9.0,74,0.00,,SCT030,0.00,77.00,VWS V14.01,2013-02-12 23:14:00,
2013-02-12 18:19:00,77.4,68.5,29.95,ESE,121,3.0,9.0,74,0.00,,SCT030,0.00,76.00,VWS V14.01,2013-02-12 23:19:00,
2013-02-12 18:24:00,77.2,68.3,29.95,South,179,4.0,10.0,74,0.00,,SCT030,0.00,74.00,VWS V14.01,2013-02-12 23:24:00,
2013-02-12 18:29:00,77.0,68.5,29.95,SSE,153,9.0,10.0,75,0.00,,SCT030,0.00,74.00,VWS V14.01,2013-02-12 23:29:00,
2013-02-12 18:34:00,76.8,68.3,29.95,SE,141,5.0,8.0,75,0.00,,SCT030,0.00,74.00,VWS V14.01,2013-02-12 23:34:00,
2013-02-12 18:39:00,76.6,68.5,29.95,SE,145,5.0,9.0,76,0.00,,SCT030,0.00,74.00,VWS V14.01,2013-02-12 23:39:00,
2013-02-12 18:44:00,76.5,68.4,29.95,SE,134,3.0,12.0,76,0.00,,SCT030,0.00,74.00,VWS V14.01,2013-02-12 23:44:00,
2013-02-12 18:49:00,76.4,68.3,29.95,SE,139,4.0,9.0,76,0.00,,SCT030,0.00,74.00,VWS V14.01,2013-02-12 23:49:00,
2013-02-12 18:54:00,76.3,68.6,29.95,South,183,6.0,14.0,77,0.00,,SCT030,0.00,74.00,VWS V14.01,2013-02-12 23:54:00,
2013-02-12 18:59:00,76.2,68.5,29.95,SSE,150,8.0,11.0,77,0.00,,CLR,0.00,74.00,VWS V14.01,2013-02-12 23:59:00,
2013-02-12 19:04:00,76.0,68.3,29.95,SSE,156,2.0,10.0,77,0.00,,CLR,0.00,74.00,VWS V14.01,2013-02-13 00:04:00,
2013-02-12 19:09:00,75.8,68.5,29.95,SSE,149,3.0,10.0,78,0.00,,CLR,0.00,74.00,VWS V14.01,2013-02-13 00:09:00,
2013-02-12 19:14:00,75.7,68.4,29.95,SSE,150,1.0,10.0,78,0.00,,CLR,0.00,74.00,VWS V14.01,2013-02-13 00:14:00,
2013-02-12 19:19:00,75.5,68.5,29.95,SSE,156,4.0,5.0,79,0.00,,CLR,0.00,74.00,VWS V14.01,2013-02-13 00:19:00,
2013-02-12 19:24:00,75.4,68.4,29.95,SSE,151,2.0,7.0,79,0.00,,CLR,0.00,74.00,VWS V14.01,2013-02-13 00:24:00,
2013-02-12 19:29:00,75.2,68.2,29.95,SSE,155,4.0,6.0,79,0.00,,CLR,0.00,74.00,VWS V14.01,2013-02-13 00:29:00,
2013-02-12 19:34:00,75.1,68.2,29.95,SSE,162,2.0,5.0,79,0.00,,CLR,0.00,74.00,VWS V14.01,2013-02-13 00:34:00,
2013-02-12 19:39:00,74.9,68.3,29.95,SE,142,3.0,5.0,80,0.00,,CLR,0.00,74.00,VWS V14.01,2013-02-13 00:39:00,
2013-02-12 19:44:00,74.7,68.1,29.95,SSE,166,5.0,7.0,80,0.00,,CLR,0.00,74.00,VWS V14.01,2013-02-13 00:44:00,
2013-02-12 19:49:00,74.6,68.4,29.95,SSE,155,3.0,7.0,81,0.00,,CLR,0.00,74.00,VWS V14.01,2013-02-13 00:49:00,
2013-02-12 19:54:00,74.5,68.3,29.95,South,180,5.0,8.0,81,0.00,,CLR,0.00,74.00,VWS V14.01,2013-02-13 00:54:00,
2013-02-12 19:59:00,74.4,68.2,29.95,SSE,150,5.0,7.0,81,0.00,,CLR,0.00,74.00,VWS V14.01,2013-02-13 00:59:00,
2013-02-12 20:04:00,74.3,68.1,29.95,SSE,167,0.0,7.0,81,0.00,,CLR,0.00,74.00,VWS V14.01,2013-02-13 01:04:00,
2013-02-12 20:09:00,74.3,68.1,29.96,SE,144,3.0,3.0,81,0.00,,CLR,0.00,74.00,VWS V14.01,2013-02-13 01:09:00,
2013-02-12 20:14:00,74.2,68.4,29.96,SSE,151,2.0,5.0,82,0.00,,CLR,0.00,74.00,VWS V14.01,2013-02-13 01:14:00,
2013-02-12 20:19:00,74.1,68.3,29.96,SE,140,4.0,5.0,82,0.00,,CLR,0.00,74.00,VWS V14.01,2013-02-13 01:19:00,
2013-02-12 20:24:00,74.0,68.2,29.96,South,190,5.0,5.0,82,0.00,,CLR,0.00,74.00,VWS V14.01,2013-02-13 01:24:00,
2013-02-12 20:29:00,74.0,68.2,29.96,SE,144,1.0,9.0,82,0.00,,CLR,0.00,74.00,VWS V14.01,2013-02-13 01:29:00,
2013-02-12 20:34:00,73.9,68.1,29.96,SSE,147,1.0,5.0,82,0.00,,CLR,0.00,74.00,VWS V14.01,2013-02-13 01:34:00,
2013-02-12 20:39:00,73.9,68.1,29.97,SSE,164,1.0,5.0,82,0.00,,CLR,0.00,74.00,VWS V14.01,2013-02-13 01:39:00,
2013-02-12 20:44:00,73.8,68.0,29.97,SSE,159,2.0,3.0,82,0.00,,CLR,0.00,74.00,VWS V14.01,2013-02-13 01:44:00,
2013-02-12 20:49:00,73.7,67.9,29.97,SSE,163,1.0,7.0,82,0.00,,CLR,0.00,74.00,VWS V14.01,2013-02-13 01:49:00,
2013-02-12 20:54:00,73.6,67.8,29.98,SSE,153,1.0,4.0,82,0.00,,CLR,0.00,74.00,VWS V14.01,2013-02-13 01:54:00,
2013-02-12 20:59:00,73.6,67.8,29.98,SSE,148,2.0,3.0,82,0.00,,CLR,0.00,74.00,VWS V14.01,2013-02-13 01:59:00,
2013-02-12 21:04:00,73.6,67.8,29.98,SSE,165,0.0,4.0,82,0.00,,CLR,0.00,74.00,VWS V14.01,2013-02-13 02:04:00,
2013-02-12 21:09:00,73.6,67.8,29.98,SSE,162,0.0,2.0,82,0.00,,CLR,0.00,74.00,VWS V14.01,2013-02-13 02:09:00,
2013-02-12 21:14:00,73.7,68.2,29.98,SSE,163,1.0,1.0,83,0.00,,CLR,0.00,74.00,VWS V14.01,2013-02-13 02:14:00,
2013-02-12 21:19:00,73.7,68.2,29.99,SSE,163,0.0,1.0,83,0.00,,CLR,0.00,74.00,VWS V14.01,2013-02-13 02:19:00,
2013-02-12 21:24:00,73.6,68.1,29.99,SSE,163,0.0,1.0,83,0.00,,CLR,0.00,74.00,VWS V14.01,2013-02-13 02:24:00,
2013-02-12 21:29:00,73.4,67.9,29.99,SSE,163,0.0,1.0,83,0.00,,CLR,0.00,74.00,VWS V14.01,2013-02-13 02:29:00,
2013-02-12 21:34:00,73.3,67.8,29.99,SSE,163,0.0,0.0,83,0.00,,CLR,0.00,74.00,VWS V14.01,2013-02-13 02:34:00,
2013-02-12 21:39:00,73.2,68.1,29.99,SSE,163,0.0,0.0,84,0.00,,CLR,0.00,74.00,VWS V14.01,2013-02-13 02:39:00,
2013-02-12 21:44:00,73.1,68.0,29.99,SSE,163,0.0,0.0,84,0.00,,CLR,0.00,74.00,VWS V14.01,2013-02-13 02:44:00,
2013-02-12 21:49:00,72.9,67.8,29.99,SSE,164,0.0,0.0,84,0.00,,CLR,0.00,74.00,VWS V14.01,2013-02-13 02:49:00,
2013-02-12 21:54:00,72.8,67.7,29.99,SSE,163,0.0,0.0,84,0.00,,CLR,0.00,74.00,VWS V14.01,2013-02-13 02:54:00,
2013-02-12 21:59:00,72.6,67.8,30.00,SSE,163,0.0,0.0,85,0.00,,CLR,0.00,74.00,VWS V14.01,2013-02-13 02:59:00,
2013-02-12 22:04:00,72.6,67.8,29.99,SSE,163,0.0,0.0,85,0.00,,CLR,0.00,74.00,VWS V14.01,2013-02-13 03:04:00,
2013-02-12 22:09:00,72.5,67.7,29.99,SSE,163,0.0,0.0,85,0.00,,CLR,0.00,74.00,VWS V14.01,2013-02-13 03:09:00,
2013-02-12 22:14:00,72.4,68.0,30.00,SSE,164,0.0,0.0,86,0.00,,CLR,0.00,74.00,VWS V14.01,2013-02-13 03:14:00,
2013-02-12 22:19:00,72.2,67.8,30.00,SSE,163,0.0,0.0,86,0.00,,CLR,0.00,74.00,VWS V14.01,2013-02-13 03:19:00,
2013-02-12 22:24:00,72.2,67.8,30.00,SSE,164,0.0,0.0,86,0.00,,CLR,0.00,74.00,VWS V14.01,2013-02-13 03:24:00,
2013-02-12 22:29:00,72.0,67.9,29.99,SSE,163,0.0,0.0,87,0.00,,CLR,0.00,74.00,VWS V14.01,2013-02-13 03:29:00,
2013-02-12 22:34:00,71.9,67.8,29.99,SSE,164,0.0,0.0,87,0.00,,CLR,0.00,74.00,VWS V14.01,2013-02-13 03:34:00,
2013-02-12 22:39:00,71.9,67.8,29.99,SSE,163,0.0,0.0,87,0.00,,CLR,0.00,74.00,VWS V14.01,2013-02-13 03:39:00,
2013-02-12 22:44:00,71.7,68.0,29.99,SSE,164,0.0,0.0,88,0.00,,CLR,0.00,74.00,VWS V14.01,2013-02-13 03:44:00,
2013-02-12 22:49:00,71.5,67.8,29.99,SSE,163,0.0,0.0,88,0.00,,CLR,0.00,74.00,VWS V14.01,2013-02-13 03:49:00,
2013-02-12 22:54:00,71.2,67.8,29.99,SSE,164,0.0,0.0,89,0.00,,CLR,0.00,74.00,VWS V14.01,2013-02-13 03:54:00,
2013-02-12 22:59:00,71.1,67.7,29.99,SSE,164,0.0,0.0,89,0.00,,CLR,0.00,74.00,VWS V14.01,2013-02-13 03:59:00,
2013-02-12 23:04:00,70.9,67.5,29.99,SSE,163,0.0,0.0,89,0.00,,CLR,0.00,74.00,VWS V14.01,2013-02-13 04:04:00,
2013-02-12 23:09:00,70.7,67.6,29.99,SSE,163,0.0,0.0,90,0.00,,CLR,0.00,74.00,VWS V14.01,2013-02-13 04:09:00,
2013-02-12 23:14:00,70.6,67.5,29.99,SSE,163,0.0,0.0,90,0.00,,CLR,0.00,74.00,VWS V14.01,2013-02-13 04:14:00,
2013-02-12 23:19:00,70.5,67.4,29.99,SSE,163,0.0,0.0,90,0.00,,CLR,0.00,74.00,VWS V14.01,2013-02-13 04:19:00,
2013-02-12 23:24:00,70.2,67.1,29.99,SSE,163,0.0,0.0,90,0.00,,CLR,0.00,74.00,VWS V14.01,2013-02-13 04:24:00,
2013-02-12 23:29:00,70.2,67.1,29.99,SSE,163,0.0,0.0,90,0.00,,CLR,0.00,74.00,VWS V14.01,2013-02-13 04:29:00,
2013-02-12 23:34:00,70.1,67.0,29.99,SSE,163,0.0,0.0,90,0.00,,CLR,0.00,74.00,VWS V14.01,2013-02-13 04:34:00,
2013-02-12 23:39:00,70.0,66.9,29.99,SSE,163,0.0,0.0,90,0.00,,CLR,0.00,74.00,VWS V14.01,2013-02-13 04:39:00,
2013-02-12 23:44:00,69.9,67.2,29.99,SSE,163,0.0,0.0,91,0.00,,CLR,0.00,74.00,VWS V14.01,2013-02-13 04:44:00,
2013-02-12 23:49:00,69.7,67.0,29.98,SSE,163,0.0,0.0,91,0.00,,CLR,0.00,74.00,VWS V14.01,2013-02-13 04:49:00,
2013-02-12 23:54:00,69.6,66.9,29.98,SSE,163,0.0,0.0,91,0.00,,CLR,0.00,74.00,VWS V14.01,2013-02-13 04:54:00,
2013-02-12 23:59:00,69.5,66.8,29.98,SSE,163,0.0,0.0,91,0.00,,CLR,0.00,74.00,VWS V14.01,2013-02-13 04:59:00,